Location: Home
(42.5358°N, 72.7383°W)
Time: 13:58:42
(UTC-05:00)

deb Explorer IX - Pass Details

Date: 08 December 2021
Orbit: 544 x 1082 km, 38.8° (Epoch: 16 January)

Event Time Altitude Azimuth Distance (km) Brightness Sun altitude
Rises 06:38:49 0° 205° (SSW) 3,518 ? -5.6°
Reaches altitude 10° 06:42:35 10° 184° (S) 2,458 ? -5.0°
Maximum altitude 06:45:52 16° 149° (SSE) 1,987 ? -4.4°
Drops below altitude 10° 06:48:55 10° 114° (ESE) 2,244 ? -3.9°
Sets 06:52:06 0° 92° (E) 3,055 ? -3.4°
